Location: Newark
(40.9833°N, 0.0333°W)
Time: 08:34:27
(UTC+00:00)

Transit 4A - Pass Details

Date: 05 November 2020
Orbit: 862 x 982 km, 66.8° (Epoch: 28 November)

Event Time Altitude Azimuth Distance (km) Brightness Sun altitude
Rises 23:45:30 0° 315° (NW) 3,681 - -65.1°
Reaches altitude 10° 23:48:54 10° 298° (WNW) 2,717 - -65.0°
Maximum altitude 23:53:00 18° 257° (WSW) 2,154 - -65.0°
Drops below altitude 10° 23:57:03 10° 216° (SW) 2,662 - -64.9°
Sets 00:00:21 0° 198° (SSW) 3,579 - -64.8°
